TimeEDT,TemperatureF,Dew PointF,Humidity,Sea Level PressureIn,VisibilityMPH,Wind Direction,Wind SpeedMPH,Gust SpeedMPH,PrecipitationIn,Events,Conditions,WindDirDegrees,DateUTC
12:00 AM,59.0,55.4,88,30.24,20.0,NNW,2.3,-,N/A,,Scattered Clouds,330,2013-07-13 04:00:00
1:00 AM,55.4,53.6,94,30.26,20.0,North,2.3,-,N/A,,Partly Cloudy,350,2013-07-13 05:00:00
2:00 AM,55.4,55.4,100,30.25,20.0,Calm,Calm,-,N/A,,Partly Cloudy,0,2013-07-13 06:00:00
3:00 AM,53.6,53.6,100,30.24,20.0,NW,2.3,-,N/A,,Partly Cloudy,320,2013-07-13 07:00:00
4:00 AM,53.6,53.6,100,30.25,20.0,North,2.3,-,N/A,,Partly Cloudy,360,2013-07-13 08:00:00
5:00 AM,51.8,51.8,100,30.26,20.0,Calm,Calm,-,N/A,Fog,Patches of Fog,0,2013-07-13 09:00:00
6:00 AM,55.4,53.6,94,30.28,25.0,NNE,5.8,-,N/A,,Partly Cloudy,20,2013-07-13 10:00:00
7:00 AM,59.0,55.4,88,30.29,25.0,NNE,3.5,-,N/A,,Partly Cloudy,20,2013-07-13 11:00:00
8:00 AM,64.4,57.2,77,30.31,25.0,North,4.6,-,N/A,,Partly Cloudy,10,2013-07-13 12:00:00
9:00 AM,71.6,59.0,64,30.31,25.0,ENE,5.8,-,N/A,,Partly Cloudy,70,2013-07-13 13:00:00
10:00 AM,73.4,60.8,65,30.31,25.0,NE,4.6,-,N/A,,Partly Cloudy,50,2013-07-13 14:00:00
11:00 AM,77.0,57.2,50,30.30,25.0,East,4.6,-,N/A,,Partly Cloudy,100,2013-07-13 15:00:00
12:00 PM,78.8,59.0,51,30.29,25.0,SE,6.9,-,N/A,,Partly Cloudy,130,2013-07-13 16:00:00
1:00 PM,80.6,57.2,45,30.28,25.0,East,2.3,-,N/A,,Partly Cloudy,80,2013-07-13 17:00:00
2:00 PM,82.4,59.0,45,30.27,35.0,Calm,Calm,-,N/A,,Partly Cloudy,0,2013-07-13 18:00:00
3:00 PM,84.2,64.4,51,30.26,35.0,South,3.5,-,N/A,,Partly Cloudy,190,2013-07-13 19:00:00
4:00 PM,84.2,62.6,48,30.25,35.0,South,5.8,-,N/A,,Partly Cloudy,170,2013-07-13 20:00:00
5:00 PM,84.2,64.4,51,30.25,35.0,Calm,Calm,-,N/A,,Partly Cloudy,0,2013-07-13 21:00:00
6:00 PM,82.4,66.2,58,30.24,45.0,South,4.6,-,N/A,,Partly Cloudy,180,2013-07-13 22:00:00
7:00 PM,80.6,68.0,65,30.24,45.0,SSW,3.5,-,N/A,,Partly Cloudy,200,2013-07-13 23:00:00
8:00 PM,77.0,68.0,74,30.25,45.0,South,3.5,-,N/A,,Partly Cloudy,180,2013-07-14 00:00:00
9:00 PM,71.6,66.2,83,30.25,25.0,South,4.6,-,N/A,,Partly Cloudy,190,2013-07-14 01:00:00
10:00 PM,68.0,64.4,88,30.26,25.0,South,3.5,-,N/A,,Partly Cloudy,180,2013-07-14 02:00:00
11:00 PM,66.2,62.6,88,30.27,25.0,Calm,Calm,-,N/A,,Partly Cloudy,0,2013-07-14 03:00:00